sat.trackr.live / text

‹ back to catalog

2024-153A

NORAD 60745 · 2024-153A

PAYLOAD ACTIVE UNKNOWN

§ Identity

Operator
Country
PRC
Launch date
2024-08-29
Launch site
YSLA
Launch vehicle
Mass (kg)
RCS (m²)

External: N2YO · Heavens-Above · Gunter

§ Orbital elements

Epoch: 2026-05-25T04:21:08.114688Z

Period
93.23 min
Inclination
97.6700°
Eccentricity
0.0008186
Mean motion
15.44522711 rev/d
Perigee alt
427.2 km
Apogee alt
438.4 km
Semi-major
6,810.9 km
B*
1.0868e-3
RAAN
285.6411°
Arg perigee
215.2551°
Mean anomaly
144.8156°
Rev number
9,655

§ Raw data

2024-153A1 60745U 24153A   26145.18134392  .00050643  00000+0  10868-2 0  99982 60745  97.6700 285.6411 0008186 215.2551 144.8156 15.44522711 96550

JSON: /api/v1/satellites/60745 · /tle

For live sub-satellite position, see the globe view (requires WebGL).

§ Visibility from observer

Set your observer location to see the next 7 days of passes ≥ 10°. The values pass through the URL so the page stays shareable.

No JS? Fill the form by hand. The geolocation button needs JavaScript.

§ Radio — SatNOGS DB

ModeDescriptionDownlinkUplink
FM Mode U - Transmitter 400.055 MHz
FM Mode U - Transmitter 400.455 MHz

2 transmitters · refreshed weekly from db.satnogs.org